Voltar ao catálogo

VENERA 9 BUS

AtivoCiênciaVLEO
NORAD 7915·PAYLOAD·🇷🇺 Russia

Lançado Jun 8, 1975 de Baikonur Cosmodrome

Loading…

Próximas Passagens (próximas 24 horas)

TLE

ObsoletoSource: Space-Track

Época: Jun 8, 1975, 03:54 UTC

1 07915U 75050  A 75159.16307445  .00087766 +00000-0 +00000-0 0  9990
2 07915 051.3781 304.1934 0191385 357.0104 002.9695 15.88322875000011

Acompanhe VENERA 9 BUS em tempo real com AllMySat

Download on the App Store